User: anonymous   Login
Location: Shell Point
(30.0571°N, 84.2896°W)
Time: 16:35:13
(UTC-04:00)
Language:

Meteor 2-19 Rocket - Orbit

View from above orbital plane
View from above orbital plane
View from above satellite
View from above satellite

Ground track
Ground track

The orbit data is extracted from the following two-line orbital elements,

1 20671U 90057B   16182.82609376  .00000004  00000-0 -93469-5 0  9997
2 20671  82.5483 291.3946 0014367 220.1678 255.9586 13.84601720314447
Epoch (UTC): 30 June 2016 19:49:34
Eccentricity: 0.0014367
inclination: 82.5483°
perigee height: 937 km
apogee height: 958 km
right ascension of ascending node: 291.3946°
argument of perigee: 220.1678°
revolutions per day: 13.84601720
mean anomaly at epoch: 255.9586°
orbit number at epoch: 31444

The dashed part of the orbit path shows where the satellite is in the earth's shadow,  

DLR